Regional Weather Roundup
Issued by NWS

Home | Current Version | Previous Version | Text Only | Print | Product List | Glossary On
Versions: 1 2 3 4 5 6 7 8 9 10 11 12 13 14 15 16 17 18 19 20 21 22 23 24 25 26 27 28 29 30 31 32 33 34 35 36 37 38 39 40 41 42 43 44 45 46 47 48 49 50
000
ASPQ40 PGUM 020914
RWRPQ
WEATHER ROUNDUP FOR THE MARIANAS AND MICRONESIA
NATIONAL WEATHER SERVICE TIYAN GU
700 PM CHST TUE JUN 02 2015

GUZ001>004-021000-
MARIANA ISLANDS-

CITY           SKY/WX    TMP DP  RH WIND       PRES   REMARKS
GUAM AIRPORT   PTCLDY    81  75  83 E12       29.86R
ANDERSEN AFB   CLOUDY    79  75  89 E15G21    29.86R
ROTA AIRPORT   NOT AVBL
TINIAN AP      NOT AVBL
SAIPAN AP      CLOUDY    81  73  78 E9        29.86R

$$

PMZ161-021000-
REPUBLIC OF PALAU-

CITY           SKY/WX    TMP DP  RH WIND       PRES   REMARKS
KOROR AP       MOCLDY    82  77  83 CALM      29.78R HX  91
KOROR WSO      MOCLDY    82  75  78 S3        29.77R

$$

PMZ171>174-021000-
FEDERATED STATES OF MICRONESIA-

CITY           SKY/WX    TMP DP  RH WIND       PRES   REMARKS
YAP AIRPORT    MOCLDY    82  77  83 VRB6      29.79R HX  91
CHUUK AP       CLOUDY    82  77  83 VRB5      29.82R HX  91
POHNPEI AP     CLOUDY    79  77  94 NW9       29.82S
POHNPEI WSO    CLOUDY    77  75  94 SW3       29.87R
KOSRAE AP      NOT AVBL

$$

PMZ181-021000-
REPUBLIC OF THE MARSHALL ISLANDS-

CITY           SKY/WX    TMP DP  RH WIND       PRES   REMARKS
KWAJALEIN AP   MOCLDY    82  73  74 E18       29.85R
MAJURO AP      NOT AVBL
MAJURO WSO     MOCLDY    82  77  83 E7        29.83R HX  91

$$



USA.gov is the U.S. government's official web portal to all federal, state and local government web resources and services.